Location: *
(17.3280°S, 114.7300°W)
Time: 10:46:11
(UTC+00:00)

Envisat - Pass Details

Date: 27 October 2020
Orbit: 764 x 766 km, 98.1° (Epoch: 28 November)

Event Time Altitude Azimuth Distance (km) Brightness Sun altitude
Rises 12:18:07 0° 38° (NE) 3,214 6.5 -11.1°
Reaches altitude 10° 12:20:44 10° 50° (NE) 2,295 5.9 -10.5°
Maximum altitude 12:24:54 26° 106° (ESE) 1,469 5.5 -9.5°
Drops below altitude 10° 12:29:05 10° 161° (SSE) 2,313 6.0 -8.5°
Sets 12:31:43 0° 173° (S) 3,245 6.6 -7.9°
